When you browse on this site, cookies collect data to enhance your experience and personalize the content and advertising you see.
Visit our Privacy Policy to learn more. By continuing to use the site, you agree to this use of cookies and data.
  • In Romania
  • List of Countries
  • For 7 days
  • Water Temperature
  • Satellite Maps
  • Weather Map
  • Weather Widgets
  • user-avatar
    Login

    Hourly Weather Matlock

    Today, 22 July, Monday

    Time Temperature Precipitation Wind Pressure Humidity
    00:00 +17°C° 0.1 mm 8 mps 746 mmHg 83%
    01:00 +17°C° 0 mm 8 mps 746 mmHg 84%
    02:00 +17°C° 0 mm 7 mps 746 mmHg 85%
    03:00 +17°C° 0 mm 7 mps 746 mmHg 86%
    04:00 +17°C° 0 mm 7 mps 746 mmHg 87%
    05:00 +17°C° 0 mm 7 mps 746 mmHg 87%
    06:00 +17°C° 0 mm 7 mps 746 mmHg 87%
    07:00 +18°C° 0 mm 7 mps 747 mmHg 84%
    08:00 +21°C° 0 mm 8 mps 747 mmHg 80%
    09:00 +22°C° 0 mm 8 mps 747 mmHg 77%
    10:00 +22°C° 0 mm 8 mps 748 mmHg 75%
    11:00 +23°C° 0 mm 8 mps 748 mmHg 72%
    12:00 +24°C° 0 mm 7 mps 748 mmHg 69%
    13:00 +24°C° 0 mm 7 mps 748 mmHg 68%
    14:00 +26°C° 0 mm 7 mps 748 mmHg 66%
    15:00 +26°C° 0 mm 7 mps 748 mmHg 65%
    16:00 +26°C° 0 mm 6 mps 748 mmHg 68%
    17:00 +24°C° 0 mm 6 mps 748 mmHg 71%
    18:00 +25°C° 0 mm 5 mps 748 mmHg 74%
    19:00 +22°C° 0 mm 5 mps 748 mmHg 79%
    20:00 +20°C° 0 mm 4 mps 748 mmHg 83%
    21:00 +19°C° 0 mm 4 mps 749 mmHg 87%
    22:00 +18°C° 0 mm 3 mps 749 mmHg 88%
    23:00 +18°C° 0 mm 3 mps 749 mmHg 89%

    Tomorrow, 23 July, Tuesday

    Time Temperature Precipitation Wind Pressure Humidity
    00:00 +17°C° 0 mm 3 mps 749 mmHg 90%
    01:00 +17°C° 0 mm 2 mps 748 mmHg 89%
    02:00 +16°C° 0 mm 2 mps 748 mmHg 89%
    03:00 +16°C° 0 mm 2 mps 748 mmHg 89%
    04:00 +17°C° 0 mm 2 mps 748 mmHg 87%
    05:00 +18°C° 0 mm 1 mps 748 mmHg 85%
    06:00 +19°C° 0 mm 1 mps 748 mmHg 83%
    07:00 +20°C° 0 mm 2 mps 748 mmHg 81%
    08:00 +21°C° 0 mm 2 mps 748 mmHg 79%
    09:00 +24°C° 0 mm 3 mps 748 mmHg 77%
    10:00 +25°C° 0 mm 3 mps 748 mmHg 74%
    11:00 +26°C° 0 mm 3 mps 747 mmHg 70%
    12:00 +27°C° 0 mm 4 mps 747 mmHg 67%
    13:00 +27°C° 0 mm 4 mps 747 mmHg 64%
    14:00 +28°C° 0 mm 4 mps 746 mmHg 62%
    15:00 +28°C° 0 mm 4 mps 746 mmHg 59%
    16:00 +28°C° 0 mm 4 mps 745 mmHg 63%
    17:00 +28°C° 0 mm 3 mps 745 mmHg 67%
    18:00 +27°C° 0 mm 3 mps 744 mmHg 70%
    19:00 +26°C° 0 mm 3 mps 744 mmHg 73%
    20:00 +23°C° 0 mm 4 mps 744 mmHg 76%
    21:00 +22°C° 0 mm 4 mps 744 mmHg 79%
    22:00 +21°C° 0.1 mm 4 mps 743 mmHg 81%
    23:00 +20°C° 0.1 mm 4 mps 743 mmHg 82%

    Day after tomorrow, 24 July, Wednesday

    Time Temperature Precipitation Wind Pressure Humidity
    00:00 +19°C° 0.1 mm 4 mps 742 mmHg 84%
    01:00 +19°C° 0.7 mm 3 mps 742 mmHg 86%
    02:00 +19°C° 0.7 mm 3 mps 741 mmHg 89%
    03:00 +18°C° 0.7 mm 3 mps 741 mmHg 91%
    04:00 +19°C° 0.2 mm 3 mps 741 mmHg 90%
    05:00 +20°C° 0.2 mm 2 mps 741 mmHg 89%
    06:00 +20°C° 0.2 mm 2 mps 741 mmHg 88%
    07:00 +21°C° 0 mm 2 mps 741 mmHg 84%
    08:00 +24°C° 0 mm 3 mps 741 mmHg 81%
    09:00 +25°C° 0 mm 3 mps 741 mmHg 78%
    10:00 +26°C° 0 mm 3 mps 742 mmHg 72%
    11:00 +27°C° 0 mm 3 mps 742 mmHg 65%
    12:00 +28°C° 0 mm 3 mps 742 mmHg 59%
    13:00 +28°C° 0 mm 3 mps 742 mmHg 59%
    14:00 +28°C° 0 mm 3 mps 742 mmHg 59%
    15:00 +28°C° 0 mm 3 mps 742 mmHg 60%
    16:00 +27°C° 0 mm 3 mps 742 mmHg 64%
    17:00 +27°C° 0 mm 2 mps 742 mmHg 67%
    18:00 +26°C° 0 mm 2 mps 742 mmHg 71%
    19:00 +25°C° 0 mm 2 mps 742 mmHg 76%
    20:00 +23°C° 0 mm 1 mps 743 mmHg 81%
    21:00 +22°C° 0 mm 1 mps 743 mmHg 86%
    22:00 +21°C° 0 mm 1 mps 742 mmHg 86%
    23:00 +21°C° 0 mm 1 mps 742 mmHg 86%

    25 July, Thursday

    Time Temperature Precipitation Wind Pressure Humidity
    00:00 +21°C° 0 mm 1 mps 742 mmHg 86%
    01:00 +21°C° 0 mm 1 mps 742 mmHg 86%
    02:00 +21°C° 0 mm 1 mps 741 mmHg 85%
    03:00 +20°C° 0 mm 2 mps 741 mmHg 85%
    04:00 +20°C° 0 mm 2 mps 741 mmHg 85%
    05:00 +20°C° 0 mm 2 mps 740 mmHg 85%
    06:00 +20°C° 0 mm 2 mps 740 mmHg 86%
    07:00 +23°C° 0 mm 2 mps 740 mmHg 82%
    08:00 +24°C° 0 mm 3 mps 740 mmHg 78%
    09:00 +25°C° 0 mm 4 mps 740 mmHg 75%
    10:00 +26°C° 0.1 mm 4 mps 739 mmHg 74%
    11:00 +26°C° 0.1 mm 4 mps 739 mmHg 74%
    12:00 +27°C° 0.1 mm 3 mps 739 mmHg 73%
    13:00 +27°C° 0 mm 3 mps 739 mmHg 74%
    14:00 +27°C° 0 mm 2 mps 738 mmHg 76%
    15:00 +27°C° 0 mm 2 mps 738 mmHg 77%
    16:00 +27°C° 0 mm 3 mps 738 mmHg 76%
    17:00 +27°C° 0 mm 4 mps 738 mmHg 76%
    18:00 +27°C° 0 mm 4 mps 737 mmHg 75%
    19:00 +26°C° 0 mm 4 mps 738 mmHg 76%
    20:00 +25°C° 0 mm 4 mps 738 mmHg 78%
    21:00 +23°C° 0 mm 4 mps 738 mmHg 79%
    22:00 +22°C° 0 mm 4 mps 738 mmHg 79%
    23:00 +21°C° 0 mm 3 mps 738 mmHg 80%

    26 July, Friday

    Time Temperature Precipitation Wind Pressure Humidity
    00:00 +20°C° 0 mm 3 mps 738 mmHg 80%
    01:00 +20°C° 0 mm 3 mps 738 mmHg 81%
    02:00 +19°C° 0 mm 3 mps 738 mmHg 81%
    03:00 +18°C° 0 mm 4 mps 737 mmHg 81%
    04:00 +18°C° 0 mm 4 mps 738 mmHg 83%
    05:00 +18°C° 0 mm 4 mps 738 mmHg 84%
    06:00 +18°C° 0 mm 4 mps 738 mmHg 86%
    07:00 +17°C° 0 mm 5 mps 738 mmHg 83%
    08:00 +19°C° 0 mm 5 mps 738 mmHg 80%
    09:00 +20°C° 0 mm 5 mps 738 mmHg 77%
    10:00 +21°C° 0.1 mm 5 mps 738 mmHg 74%
    11:00 +21°C° 0.1 mm 6 mps 737 mmHg 72%
    12:00 +22°C° 0.1 mm 6 mps 737 mmHg 69%
    13:00 +22°C° 0.4 mm 6 mps 737 mmHg 70%
    14:00 +22°C° 0.4 mm 6 mps 736 mmHg 72%
    15:00 +22°C° 0.4 mm 6 mps 736 mmHg 73%
    16:00 +22°C° 0.5 mm 6 mps 736 mmHg 75%
    17:00 +21°C° 0.5 mm 5 mps 736 mmHg 77%
    18:00 +21°C° 0.5 mm 5 mps 736 mmHg 80%
    19:00 +20°C° 0.2 mm 5 mps 736 mmHg 84%
    20:00 +18°C° 0.2 mm 4 mps 736 mmHg 88%
    21:00 +17°C° 0.2 mm 4 mps 736 mmHg 93%
    22:00 +17°C° 0 mm 4 mps 736 mmHg 93%
    23:00 +15°C° 0 mm 5 mps 736 mmHg 93%

    27 July, Saturday

    Time Temperature Precipitation Wind Pressure Humidity
    00:00 +15°C° 0 mm 5 mps 737 mmHg 93%
    01:00 +15°C° 0 mm 5 mps 737 mmHg 93%
    02:00 +14°C° 0 mm 5 mps 737 mmHg 93%
    03:00 +14°C° 0 mm 5 mps 737 mmHg 92%
    04:00 +14°C° 0.1 mm 5 mps 737 mmHg 91%
    05:00 +14°C° 0.1 mm 6 mps 737 mmHg 91%
    06:00 +14°C° 0.1 mm 6 mps 738 mmHg 90%
    07:00 +13°C° 0.1 mm 6 mps 738 mmHg 90%
    08:00 +13°C° 0.1 mm 6 mps 739 mmHg 89%
    09:00 +12°C° 0.1 mm 7 mps 739 mmHg 89%
    10:00 +12°C° 0.1 mm 7 mps 739 mmHg 88%
    11:00 +12°C° 0.1 mm 7 mps 740 mmHg 87%
    12:00 +12°C° 0.1 mm 7 mps 740 mmHg 85%
    13:00 +12°C° 0.1 mm 7 mps 740 mmHg 83%
    14:00 +12°C° 0.1 mm 7 mps 741 mmHg 82%
    15:00 +13°C° 0.1 mm 6 mps 741 mmHg 80%
    16:00 +14°C° 0 mm 6 mps 741 mmHg 77%
    17:00 +15°C° 0 mm 6 mps 741 mmHg 75%
    18:00 +15°C° 0 mm 6 mps 741 mmHg 73%
    19:00 +14°C° 0 mm 5 mps 742 mmHg 78%
    20:00 +13°C° 0 mm 5 mps 742 mmHg 83%
    21:00 +12°C° 0 mm 4 mps 742 mmHg 88%
    22:00 +11°C° 0 mm 4 mps 742 mmHg 89%
    23:00 +11°C° 0 mm 4 mps 742 mmHg 90%
    Show more